Change the Weather History Date:

Saturday, November 10, 2012

  Actual Average Record
Temperature  
Mean Temperature 27 °F 40 °F  
Max Temperature 36 °F 54 °F 75 °F (1958)
Min Temperature 17 °F 27 °F -4 °F (1950)
Degree Days  
Heating Degree Days 38 25  
Month to date heating degree days 201 227  
Since 1 July heating degree days 871 830  
Cooling Degree Days 0 0  
Month to date cooling degree days 0 0  
Year to date cooling degree days 1165 830  
Moisture  
Dew Point 27 °F    
Average Humidity 86    
Maximum Humidity 100    
Minimum Humidity 71    
Precipitation  
Precipitation 0.04 in 0.02 in 0.11 in (1995)
Month to date precipitation 0.04 0.18  
Year to date precipitation 7.02 17.61  
Sea Level Pressure  
Sea Level Pressure 29.66 in    
Wind  
Wind Speed 15 mph (North)    
Max Wind Speed 30 mph    
Max Gust Speed 38 mph    
Visibility 3 miles    
Events Fog , Snow    
T = Trace of Precipitation, MM = Missing Value Source: NWS Daily Summary

Daily Weather History Graph

Daily Weather History Graph

Search for Another Location

Airport or City:

Trip Planner

Search our weather history database for the weather conditions in past years. The results will help you decide how hot, cold, wet, or windy it might be!

Date:

Astronomy

Nov. 10, 2012 Rise Set
Actual Time 6:34 AM MST 4:37 PM MST
Civil Twilight 6:05 AM MST 5:06 PM MST
Nautical Twilight 5:32 AM MST 5:39 PM MST
Astronomical Twilight 4:59 AM MST 6:11 PM MST
Moon 2:40 AM MST (11/10) 2:26 PM MST (11/10)
Length of Visible Light 11h 01m
Length of Day
10h 02m
Waning Crescent, 14% of the Moon is Illuminated
Nov 10
Waning Crescent
Nov 13
New
Nov 20
First Quarter
Nov 28
Full
Dec 6
Last Quarter

Hourly Weather History & Observations

Time (MST) Temp. Windchill Dew Point Humidity Pressure Visibility Wind Dir Wind Speed Gust Speed Precip Events Conditions
12:53 AM 34.0 °F 28.8 °F 33.1 °F 96% 29.54 in 0.2 mi SE 5.8 mph - N/A Fog Fog
1:53 AM 34.0 °F 31.0 °F 33.1 °F 96% 29.53 in 0.2 mi ESE 3.5 mph - N/A Fog Fog
2:53 AM 34.0 °F - 32.0 °F 92% 29.50 in 0.2 mi Calm Calm - N/A Fog Fog
3:53 AM 33.1 °F 26.9 °F 32.0 °F 96% 29.49 in 0.2 mi ESE 6.9 mph - N/A Fog Fog
4:53 AM 30.9 °F - 30.0 °F 96% 29.52 in 0.2 mi Calm Calm - N/A Fog Light Freezing Fog
5:53 AM 32.0 °F 23.0 °F 30.9 °F 96% 29.53 in 0.2 mi North 11.5 mph - N/A Fog Fog
6:53 AM 33.1 °F 23.0 °F 32.0 °F 96% 29.58 in 0.2 mi North 15.0 mph - N/A Fog Fog
7:53 AM 35.1 °F 25.2 °F 33.1 °F 92% 29.60 in 0.2 mi North 16.1 mph - N/A Fog Fog
8:11 AM 35.6 °F 26.2 °F 33.8 °F 93% 29.56 in 1.2 mi North 15.0 mph - N/A   Overcast
8:28 AM 35.6 °F 26.2 °F 33.8 °F 93% 29.55 in 2.5 mi North 15.0 mph - N/A   Overcast
8:44 AM 35.6 °F 26.2 °F 33.8 °F 93% 29.55 in 1.2 mi North 15.0 mph - N/A   Overcast
8:53 AM 36.0 °F 26.7 °F 34.0 °F 93% 29.59 in 1.2 mi North 15.0 mph - N/A   Overcast
9:16 AM 35.6 °F 25.5 °F 33.8 °F 93% 29.55 in 2.5 mi North 17.3 mph - N/A   Overcast
9:32 AM 35.6 °F 25.9 °F 33.8 °F 93% 29.55 in 3.0 mi North 16.1 mph - N/A   Overcast
9:53 AM 36.0 °F 26.3 °F 34.0 °F 93% 29.60 in 5.0 mi North 16.1 mph - N/A   Overcast
10:23 AM 35.6 °F 24.8 °F 33.8 °F 93% 29.55 in 2.5 mi North 19.6 mph 25.3 mph 0.00 in   Overcast
10:34 AM 35.6 °F 25.2 °F 33.8 °F 93% 29.55 in 4.0 mi North 18.4 mph 26.5 mph 0.00 in   Overcast
10:53 AM 35.1 °F 25.2 °F 33.1 °F 92% 29.59 in 4.0 mi NNE 16.1 mph - 0.00 in   Overcast
11:23 AM 35.6 °F 25.5 °F 33.8 °F 93% 29.54 in 2.5 mi NNE 17.3 mph - N/A   Overcast
11:39 AM 35.6 °F 25.9 °F 33.8 °F 93% 29.54 in 4.0 mi NNE 16.1 mph - N/A   Overcast
11:53 AM 35.1 °F 25.2 °F 33.1 °F 92% 29.59 in 5.0 mi NNE 16.1 mph - N/A   Overcast
12:09 PM 35.6 °F 27.5 °F 33.8 °F 93% 29.56 in 9.0 mi NE 11.5 mph - N/A   Overcast
12:30 PM 35.6 °F 27.5 °F 32.0 °F 87% 29.56 in 1.8 mi North 11.5 mph - 0.00 in Snow Light Snow
12:41 PM 33.8 °F 27.7 °F 32.0 °F 93% 29.57 in 1.0 mi North 6.9 mph - 0.01 in Snow Light Snow
12:47 PM 33.8 °F 26.4 °F 32.0 °F 93% 29.55 in 1.2 mi NNE 9.2 mph - 0.01 in Snow Light Snow
12:53 PM 34.0 °F 25.5 °F 32.0 °F 92% 29.56 in 1.5 mi NNE 11.5 mph - 0.01 in Snow Light Snow
1:03 PM 35.6 °F 27.1 °F 33.8 °F 93% 29.56 in 3.0 mi North 12.7 mph - 0.00 in Snow Light Snow
1:53 PM 36.0 °F 26.3 °F 33.1 °F 89% 29.60 in 10.0 mi North 16.1 mph - 0.00 in   Overcast
2:04 PM 35.6 °F 25.9 °F 33.8 °F 93% 29.55 in 10.0 mi North 16.1 mph - N/A   Overcast
2:53 PM 34.0 °F 23.0 °F 30.9 °F 89% 29.65 in 6.0 mi North 18.4 mph 25.3 mph 0.00 in Snow Light Snow
3:07 PM 33.8 °F 23.9 °F 30.2 °F 87% 29.64 in 1.8 mi North 15.0 mph - 0.00 in Snow Light Snow
3:11 PM 33.8 °F 23.9 °F 30.2 °F 87% 29.65 in 0.8 mi NNW 15.0 mph - 0.00 in Snow Light Snow
3:53 PM 30.0 °F 16.6 °F 28.0 °F 92% 29.70 in 0.2 mi North 23.0 mph - 0.02 in Fog , Snow Snow
4:04 PM 30.2 °F 17.4 °F 26.6 °F 86% 29.64 in 1.2 mi North 20.7 mph - 0.00 in Snow Light Snow
4:11 PM 30.2 °F 17.4 °F 26.6 °F 86% 29.63 in 3.0 mi North 20.7 mph - 0.00 in Snow Light Snow
4:37 PM 28.4 °F 13.0 °F 24.8 °F 86% 29.66 in 1.8 mi North 28.8 mph 35.7 mph 0.00 in Snow Light Snow
4:48 PM 28.4 °F 13.8 °F 24.8 °F 86% 29.66 in 2.5 mi North 25.3 mph 32.2 mph 0.00 in Snow Light Snow
4:51 PM 26.6 °F 12.0 °F 24.8 °F 93% 29.66 in 3.0 mi North 23.0 mph 32.2 mph 0.00 in Snow Light Snow
4:53 PM 27.0 °F 14.3 °F 24.1 °F 89% 29.74 in 3.0 mi NNW 17.3 mph 32.2 mph 0.00 in Snow Light Snow
5:02 PM 26.6 °F 13.4 °F 23.0 °F 86% 29.66 in 2.0 mi NNW 18.4 mph 31.1 mph 0.00 in Snow Light Snow
5:09 PM 26.6 °F 13.4 °F 24.8 °F 93% 29.68 in 1.0 mi NNW 18.4 mph - 0.00 in Snow Light Snow
5:24 PM 26.6 °F 11.7 °F 23.0 °F 86% 29.69 in 1.2 mi North 24.2 mph 28.8 mph 0.00 in Snow Light Snow
5:32 PM 26.6 °F 13.4 °F 23.0 °F 86% 29.70 in 2.0 mi North 18.4 mph - 0.00 in Snow Light Snow
5:53 PM 25.0 °F 10.6 °F 21.9 °F 88% 29.81 in 1.2 mi North 20.7 mph - 0.00 in Snow Light Snow
6:02 PM 24.8 °F 10.7 °F 21.2 °F 86% 29.73 in 1.0 mi North 19.6 mph - 0.00 in Snow Light Snow
6:14 PM 24.8 °F 9.6 °F 21.2 °F 86% 29.74 in 1.0 mi NNW 23.0 mph - 0.00 in Snow Light Snow
6:18 PM 24.8 °F 10.0 °F 21.2 °F 86% 29.74 in 1.5 mi NNW 21.9 mph - 0.00 in Snow Light Snow
6:28 PM 24.8 °F 10.7 °F 21.2 °F 86% 29.75 in 2.0 mi North 19.6 mph 27.6 mph 0.00 in Snow Light Snow
6:35 PM 24.8 °F 10.7 °F 21.2 °F 86% 29.75 in 1.0 mi North 19.6 mph - 0.01 in Snow Light Snow
6:43 PM 24.8 °F 10.7 °F 21.2 °F 86% 29.75 in 0.5 mi North 19.6 mph 27.6 mph 0.01 in Fog , Snow Snow
6:53 PM 24.1 °F 9.0 °F 21.0 °F 88% 29.84 in 0.5 mi NNW 21.9 mph - 0.01 in Fog , Snow Snow
7:08 PM 24.8 °F 8.7 °F 19.4 °F 80% 29.76 in 1.0 mi NNW 26.5 mph 31.1 mph 0.00 in Snow Light Snow
7:19 PM 24.8 °F 9.6 °F 19.4 °F 80% 29.76 in 1.5 mi North 23.0 mph - 0.00 in Snow Light Snow
7:23 PM 23.0 °F 7.2 °F 19.4 °F 86% 29.76 in 2.0 mi North 23.0 mph - 0.00 in Snow Light Snow
7:37 PM 23.0 °F 6.9 °F 19.4 °F 86% 29.76 in 3.0 mi NNW 24.2 mph 33.4 mph 0.00 in   Overcast
7:45 PM 23.0 °F 7.6 °F 19.4 °F 86% 29.76 in 8.0 mi North 21.9 mph - 0.00 in   Overcast
7:53 PM 23.0 °F 7.6 °F 19.0 °F 85% 29.86 in 10.0 mi NNW 21.9 mph - 0.00 in   Overcast
9:01 PM 21.2 °F 6.4 °F 15.8 °F 80% 29.81 in 10.0 mi NNW 18.4 mph 27.6 mph N/A   Overcast
9:14 PM 21.2 °F 7.3 °F 15.8 °F 80% 29.81 in 10.0 mi NNW 16.1 mph - N/A   Overcast
9:53 PM 21.0 °F 5.0 °F 14.0 °F 74% 29.90 in 10.0 mi NNW 21.9 mph - N/A   Overcast
10:53 PM 19.0 °F 2.7 °F 12.9 °F 77% 29.93 in 10.0 mi NNW 20.7 mph - N/A   Clear
11:53 PM 17.1 °F -0.6 °F 10.9 °F 77% 29.94 in 10.0 mi NNW 23.0 mph 29.9 mph N/A   Clear